UAE7TR OMDB-EGKK

Flight info

Callsign UAE7TR
Flight time N/A
Altitude 38000
Route RIDAP M557 TUMAK L602 GADSI M860 SEPTU DCT VUSEB/N0490F400 M860 NINVA UM860 ODALI UL852 NEGEM L852 KOMAN DCT TEGRI DCT BEGLA DCT DEXIT DCT INBED DCT BOMBI DCT ADKUV DCT KENUM DCT DENUT L610 TEBRA
Aircraft A359/H-SDE2E3GHIJ3J4J5LM1ORWXY/LB1D1

Departure

Time N/A
Airport Dubai International Airport (OMDB)

Arrival

Time 2026-05-04 16:18
Airport London Gatwick Airport (EGKK)
Time Latitude Longitude Altitude Speed Heading
2026-05-04 11:19 33.81431 44.55660 38086 ft 508 kts 335°
2026-05-04 11:20 33.88300 44.53612 38082 ft 509 kts 335°
2026-05-04 11:20 33.95178 44.51558 38081 ft 509 kts 335°
2026-05-04 11:22 34.22697 44.43306 38082 ft 509 kts 335°
2026-05-04 11:23 34.29586 44.41230 38085 ft 511 kts 335°
2026-05-04 11:25 34.53778 44.33917 38077 ft 514 kts 335°
2026-05-04 11:25 34.60717 44.31811 38079 ft 514 kts 335°
2026-05-04 11:27 34.91920 44.22297 38106 ft 515 kts 335°
2026-05-04 11:28 35.02605 44.19021 37940 ft 516 kts 335°
2026-05-04 11:29 35.09521 44.16897 37878 ft 516 kts 335°
2026-05-04 11:29 35.16490 44.14753 37879 ft 516 kts 335°
2026-05-04 11:33 35.64029 44.00023 37866 ft 516 kts 336°
2026-05-04 11:33 35.70988 43.97851 37865 ft 516 kts 336°
2026-05-04 11:34 35.77941 43.95677 37863 ft 515 kts 336°
2026-05-04 11:34 35.84892 43.93499 37865 ft 515 kts 336°
2026-05-04 11:35 35.91850 43.91317 37877 ft 515 kts 336°
2026-05-04 11:35 35.98804 43.89130 37878 ft 515 kts 336°
2026-05-04 11:36 36.05716 43.86954 37899 ft 515 kts 336°
2026-05-04 11:36 36.12664 43.84762 37903 ft 515 kts 336°
2026-05-04 11:37 36.19624 43.82562 37929 ft 515 kts 336°
2026-05-04 11:37 36.26529 43.80334 37876 ft 510 kts 333°
2026-05-04 11:38 36.29837 43.78840 37984 ft 504 kts 328°
2026-05-04 11:38 36.33088 43.77235 38216 ft 502 kts 328°
2026-05-04 11:38 36.36319 43.75590 38487 ft 501 kts 327°
2026-05-04 11:38 36.39534 43.73924 38623 ft 501 kts 327°
2026-05-04 11:39 36.42744 43.72248 38751 ft 501 kts 327°
2026-05-04 11:39 36.45958 43.70566 38887 ft 501 kts 327°
2026-05-04 11:40 36.65251 43.60500 39602 ft 502 kts 328°
2026-05-04 11:41 36.68474 43.58817 39721 ft 502 kts 328°
2026-05-04 11:41 36.71697 43.57132 39836 ft 502 kts 328°
2026-05-04 11:41 36.74926 43.55442 39893 ft 504 kts 328°
2026-05-04 11:42 36.81341 43.51940 39899 ft 502 kts 327°
2026-05-04 11:42 36.87707 43.48339 39919 ft 503 kts 326°
2026-05-04 11:43 36.94096 43.44732 39918 ft 503 kts 327°
2026-05-04 11:43 37.00486 43.41143 39940 ft 505 kts 327°
2026-05-04 11:44 37.06896 43.37542 39936 ft 505 kts 327°
2026-05-04 11:44 37.13317 43.33927 39968 ft 506 kts 327°
2026-05-04 11:45 37.19695 43.30330 39953 ft 506 kts 327°
2026-05-04 11:45 37.26135 43.26694 39955 ft 507 kts 327°
2026-05-04 11:46 37.32253 43.22515 39962 ft 491 kts 314°
2026-05-04 11:46 37.34818 43.19761 39961 ft 479 kts 306°
2026-05-04 11:46 37.36945 43.16613 39967 ft 467 kts 297°
2026-05-04 11:47 37.40239 43.09694 39972 ft 460 kts 290°
2026-05-04 11:47 37.43243 43.02584 39962 ft 460 kts 290°
2026-05-04 11:48 37.46217 42.95460 39959 ft 459 kts 290°
2026-05-04 11:48 37.49195 42.88401 39961 ft 461 kts 290°
2026-05-04 11:49 37.52207 42.81259 39956 ft 463 kts 290°
2026-05-04 11:49 37.55250 42.74044 39957 ft 464 kts 290°
2026-05-04 11:50 37.58281 42.66857 39946 ft 463 kts 290°
2026-05-04 11:50 37.61318 42.59670 39942 ft 465 kts 290°
2026-05-04 11:51 37.64337 42.52491 39948 ft 466 kts 290°
2026-05-04 11:51 37.67366 42.45271 39941 ft 466 kts 290°
2026-05-04 11:52 37.70394 42.38026 39947 ft 467 kts 290°
2026-05-04 11:52 37.73427 42.30752 39945 ft 468 kts 290°
2026-05-04 11:53 37.76467 42.23470 39931 ft 468 kts 290°
2026-05-04 11:53 37.79502 42.16181 39937 ft 469 kts 291°
2026-05-04 11:55 37.91986 41.87134 39938 ft 481 kts 301°
2026-05-04 11:56 37.96306 41.80607 39936 ft 484 kts 304°
2026-05-04 11:56 38.00774 41.74205 39947 ft 486 kts 304°
2026-05-04 11:57 38.05273 41.67788 39949 ft 486 kts 304°
2026-05-04 11:57 38.09751 41.61357 39948 ft 486 kts 304°
2026-05-04 11:58 38.14222 41.54900 39946 ft 487 kts 304°
2026-05-04 11:58 38.18698 41.48413 39944 ft 488 kts 304°
2026-05-04 11:59 38.23145 41.41958 39966 ft 488 kts 304°
2026-05-04 11:59 38.27628 41.35441 39944 ft 489 kts 304°
2026-05-04 12:00 38.32104 41.28920 39943 ft 490 kts 304°
2026-05-04 12:00 38.36587 41.22378 39950 ft 490 kts 304°
2026-05-04 12:01 38.41069 41.15821 39944 ft 491 kts 304°
2026-05-04 12:02 38.56561 40.92519 39949 ft 493 kts 303°
2026-05-04 12:03 38.60939 40.85766 39949 ft 493 kts 304°
2026-05-04 12:03 38.65339 40.79028 39933 ft 494 kts 304°
2026-05-04 12:04 38.69798 40.72303 39948 ft 495 kts 304°
2026-05-04 12:04 38.74235 40.65616 39951 ft 495 kts 304°
2026-05-04 12:05 38.78693 40.58870 39945 ft 496 kts 304°
2026-05-04 12:05 38.83140 40.52112 39937 ft 496 kts 304°
2026-05-04 12:06 38.87582 40.45345 39948 ft 496 kts 304°
2026-05-04 12:06 38.92027 40.38552 39936 ft 496 kts 304°
2026-05-04 12:07 38.96471 40.31755 39929 ft 496 kts 304°
2026-05-04 12:07 39.00912 40.24948 39929 ft 497 kts 304°
2026-05-04 12:08 39.05354 40.18119 39918 ft 498 kts 304°
2026-05-04 12:08 39.09795 40.11286 39941 ft 498 kts 304°
2026-05-04 12:09 39.14232 40.04445 39934 ft 498 kts 304°
2026-05-04 12:09 39.18645 39.97623 39938 ft 498 kts 304°
2026-05-04 12:10 39.23085 39.90748 39932 ft 498 kts 304°
2026-05-04 12:10 39.27515 39.83854 39930 ft 499 kts 304°
2026-05-04 12:11 39.31945 39.76949 39931 ft 499 kts 305°
2026-05-04 12:11 39.36382 39.70020 39928 ft 501 kts 305°
2026-05-04 12:12 39.40822 39.63073 39924 ft 501 kts 305°
2026-05-04 12:12 39.45264 39.56109 39914 ft 501 kts 305°
2026-05-04 12:14 39.62873 39.27985 39881 ft 504 kts 304°
2026-05-04 12:15 39.67266 39.20867 39863 ft 504 kts 305°
2026-05-04 12:15 39.71656 39.13749 39871 ft 506 kts 305°
2026-05-04 12:16 39.76074 39.06632 39845 ft 506 kts 305°
2026-05-04 12:16 39.80531 38.99549 39835 ft 506 kts 306°
2026-05-04 12:17 39.84236 38.93651 39837 ft 506 kts 305°
2026-05-04 12:17 39.88686 38.86537 39816 ft 507 kts 304°
2026-05-04 12:18 39.93849 38.78245 39812 ft 507 kts 304°
2026-05-04 12:18 39.97569 38.72256 39815 ft 507 kts 306°
2026-05-04 12:19 40.02012 38.65092 39804 ft 508 kts 306°
2026-05-04 12:19 40.06426 38.57962 39803 ft 508 kts 304°
2026-05-04 12:20 40.10870 38.50758 39806 ft 509 kts 306°
2026-05-04 12:20 40.15303 38.43559 39792 ft 508 kts 306°
2026-05-04 12:21 40.19736 38.36347 39793 ft 508 kts 306°
2026-05-04 12:21 40.24163 38.29126 39788 ft 508 kts 306°
2026-05-04 12:22 40.28578 38.21906 39785 ft 508 kts 306°
2026-05-04 12:22 40.32654 38.14458 39776 ft 504 kts 295°
2026-05-04 12:23 40.35515 38.06119 39779 ft 502 kts 289°
2026-05-04 12:23 40.38089 37.97622 39772 ft 501 kts 288°
2026-05-04 12:24 40.40608 37.89106 39763 ft 500 kts 288°
2026-05-04 12:24 40.43137 37.80588 39760 ft 500 kts 288°
2026-05-04 12:25 40.45676 37.72060 39777 ft 501 kts 288°
2026-05-04 12:25 40.48210 37.63549 39762 ft 501 kts 289°
2026-05-04 12:26 40.50740 37.55023 39749 ft 501 kts 288°
2026-05-04 12:26 40.53265 37.46480 39746 ft 501 kts 288°
2026-05-04 12:27 40.55780 37.37943 39751 ft 501 kts 289°
2026-05-04 12:27 40.58280 37.29434 39745 ft 501 kts 288°
2026-05-04 12:28 40.60783 37.20884 39749 ft 501 kts 289°
2026-05-04 12:28 40.63285 37.12311 39746 ft 501 kts 289°
2026-05-04 12:29 40.65778 37.03739 39749 ft 501 kts 289°
2026-05-04 12:29 40.68266 36.95155 39746 ft 501 kts 289°
2026-05-04 12:30 40.70745 36.86575 39750 ft 501 kts 289°
2026-05-04 12:30 40.73220 36.77985 39754 ft 501 kts 289°
2026-05-04 12:31 40.75686 36.69394 39768 ft 501 kts 289°
2026-05-04 12:31 40.78151 36.60782 39755 ft 501 kts 289°
2026-05-04 12:32 40.81821 36.47899 39759 ft 501 kts 289°
2026-05-04 12:33 40.84270 36.39271 39764 ft 501 kts 289°
2026-05-04 12:33 40.86712 36.30636 39764 ft 503 kts 288°
2026-05-04 12:34 40.89156 36.21965 39764 ft 503 kts 288°
2026-05-04 12:34 40.91593 36.13294 39763 ft 502 kts 288°
2026-05-04 12:35 40.94022 36.04621 39768 ft 503 kts 289°
2026-05-04 12:35 40.96446 35.95951 39763 ft 503 kts 289°
2026-05-04 12:36 40.98859 35.87267 39764 ft 502 kts 289°
2026-05-04 12:36 41.01269 35.78585 39763 ft 503 kts 289°
2026-05-04 12:37 41.03670 35.69885 39763 ft 503 kts 289°
2026-05-04 12:37 41.06067 35.61179 39772 ft 503 kts 289°
2026-05-04 12:38 41.08460 35.52460 39777 ft 503 kts 289°
2026-05-04 12:38 41.10845 35.43739 39763 ft 503 kts 289°
2026-05-04 12:39 41.13221 35.35025 39767 ft 502 kts 289°
2026-05-04 12:39 41.15586 35.26318 39767 ft 503 kts 289°
2026-05-04 12:40 41.17953 35.17575 39766 ft 502 kts 289°
2026-05-04 12:40 41.20308 35.08844 39769 ft 502 kts 289°
2026-05-04 12:41 41.22643 35.00157 39769 ft 503 kts 289°
2026-05-04 12:41 41.24986 34.91407 39761 ft 502 kts 289°
2026-05-04 12:42 41.27324 34.82655 39769 ft 503 kts 289°
2026-05-04 12:42 41.29659 34.73896 39765 ft 503 kts 289°
2026-05-04 12:43 41.31986 34.65132 39776 ft 502 kts 289°
2026-05-04 12:43 41.34312 34.56343 39768 ft 504 kts 289°
2026-05-04 12:44 41.36635 34.47530 39778 ft 504 kts 289°
2026-05-04 12:44 41.38946 34.38735 39780 ft 503 kts 289°
2026-05-04 12:45 41.41238 34.29973 39788 ft 505 kts 289°
2026-05-04 12:45 41.43543 34.21072 39787 ft 504 kts 289°
2026-05-04 12:46 41.45803 34.12294 39794 ft 504 kts 289°
2026-05-04 12:46 41.48085 34.03440 39797 ft 505 kts 289°
2026-05-04 12:47 41.50367 33.94555 39794 ft 505 kts 289°
2026-05-04 12:47 41.52644 33.85658 39806 ft 506 kts 289°
2026-05-04 12:48 41.54900 33.76811 39797 ft 507 kts 289°
2026-05-04 12:48 41.57162 33.67906 39810 ft 506 kts 289°
2026-05-04 12:49 41.59422 33.58978 39815 ft 507 kts 289°
2026-05-04 12:49 41.61689 33.50050 39829 ft 507 kts 289°
2026-05-04 12:50 41.63931 33.41120 39832 ft 507 kts 289°
2026-05-04 12:50 41.66161 33.32178 39835 ft 506 kts 289°
2026-05-04 12:51 41.68383 33.23248 39840 ft 506 kts 289°
2026-05-04 12:51 41.70601 33.14313 39839 ft 506 kts 289°
2026-05-04 12:52 41.72799 33.05429 39844 ft 506 kts 289°
2026-05-04 12:52 41.75006 32.96495 39850 ft 504 kts 290°
2026-05-04 12:53 41.77201 32.87551 39853 ft 506 kts 290°
2026-05-04 12:53 41.79393 32.78586 39858 ft 505 kts 289°
2026-05-04 12:54 41.81572 32.69657 39860 ft 503 kts 290°
2026-05-04 12:54 41.83739 32.60720 39856 ft 504 kts 289°
2026-05-04 12:55 41.85896 32.51787 39860 ft 503 kts 289°
2026-05-04 12:55 41.88029 32.42920 39858 ft 502 kts 290°
2026-05-04 12:56 41.90161 32.33987 39857 ft 502 kts 290°
2026-05-04 12:56 41.92299 32.25068 39857 ft 502 kts 290°
2026-05-04 12:57 41.94438 32.16141 39854 ft 502 kts 289°
2026-05-04 12:57 41.96553 32.07198 39857 ft 502 kts 289°
2026-05-04 12:58 41.98659 31.98244 39858 ft 502 kts 289°
2026-05-04 12:58 42.00759 31.89296 39846 ft 502 kts 289°
2026-05-04 12:59 42.02861 31.80346 39850 ft 501 kts 289°
2026-05-04 12:59 42.04948 31.71405 39853 ft 501 kts 289°
2026-05-04 13:00 42.07027 31.62464 39853 ft 501 kts 289°
2026-05-04 13:00 42.09102 31.53511 39849 ft 502 kts 289°
2026-05-04 13:01 42.11163 31.44588 39856 ft 504 kts 289°
2026-05-04 13:01 42.13241 31.35557 39868 ft 504 kts 288°
2026-05-04 13:02 42.15303 31.26541 39865 ft 503 kts 288°
2026-05-04 13:02 42.17359 31.17520 39878 ft 503 kts 288°
2026-05-04 13:03 42.19407 31.08506 39883 ft 502 kts 288°
2026-05-04 13:03 42.21441 30.99507 39888 ft 502 kts 289°
2026-05-04 13:04 42.23133 30.91998 39888 ft 503 kts 288°
2026-05-04 13:04 42.25477 30.81541 39895 ft 499 kts 289°
2026-05-04 13:05 42.27483 30.72560 39904 ft 500 kts 289°
2026-05-04 13:05 42.29165 30.65017 39904 ft 500 kts 289°
2026-05-04 13:06 42.31161 30.56015 39909 ft 501 kts 289°
2026-05-04 13:06 42.33142 30.47035 39918 ft 503 kts 289°
2026-05-04 13:07 42.35136 30.37976 39921 ft 502 kts 288°
2026-05-04 13:07 42.37115 30.28930 39916 ft 502 kts 289°
2026-05-04 13:08 42.39097 30.19840 39940 ft 506 kts 289°
2026-05-04 13:08 42.41078 30.10716 39938 ft 504 kts 289°
2026-05-04 13:09 42.43044 30.01606 39949 ft 505 kts 289°
2026-05-04 13:09 42.45011 29.92464 39956 ft 504 kts 288°
2026-05-04 13:10 42.47566 29.83692 39963 ft 499 kts 298°
2026-05-04 13:10 42.50778 29.75347 39964 ft 499 kts 301°
2026-05-04 13:11 42.54072 29.67116 39966 ft 500 kts 301°
2026-05-04 13:11 42.57376 29.58853 39972 ft 498 kts 300°
2026-05-04 13:12 42.60715 29.50634 39976 ft 497 kts 303°
2026-05-04 13:12 42.64308 29.42589 39976 ft 498 kts 304°
2026-05-04 13:13 42.67930 29.34553 39981 ft 498 kts 304°
2026-05-04 13:13 42.71500 29.26496 39980 ft 497 kts 303°
2026-05-04 13:14 42.75043 29.18410 39984 ft 497 kts 302°
2026-05-04 13:14 42.78568 29.10325 39985 ft 496 kts 303°
2026-05-04 13:15 42.82067 29.02283 39990 ft 497 kts 303°
2026-05-04 13:15 42.85594 28.94157 40000 ft 498 kts 302°
2026-05-04 13:16 42.89117 28.86019 39992 ft 497 kts 303°
2026-05-04 13:16 42.92621 28.77900 40000 ft 495 kts 302°
2026-05-04 13:17 42.96092 28.69840 40007 ft 495 kts 302°
2026-05-04 13:17 42.99578 28.61723 40010 ft 495 kts 302°
2026-05-04 13:18 43.03062 28.53586 40015 ft 495 kts 302°
2026-05-04 13:18 43.06526 28.45475 40015 ft 494 kts 302°
2026-05-04 13:19 43.09981 28.37359 40015 ft 493 kts 301°
2026-05-04 13:19 43.13430 28.29236 40018 ft 493 kts 301°
2026-05-04 13:20 43.16865 28.21124 40021 ft 492 kts 301°
2026-05-04 13:20 43.20289 28.13013 40021 ft 492 kts 301°
2026-05-04 13:21 43.23710 28.04889 40022 ft 492 kts 301°
2026-05-04 13:21 43.27109 27.96795 40020 ft 492 kts 301°
2026-05-04 13:22 43.30525 27.88636 40020 ft 493 kts 301°
2026-05-04 13:22 43.33937 27.80465 40018 ft 493 kts 302°
2026-05-04 13:23 43.37349 27.72272 40017 ft 494 kts 301°
2026-05-04 13:23 43.40752 27.64074 40014 ft 493 kts 301°
2026-05-04 13:24 43.44144 27.55881 40009 ft 493 kts 301°
2026-05-04 13:24 43.47510 27.47727 40006 ft 493 kts 301°
2026-05-04 13:25 43.52576 27.35409 40015 ft 493 kts 301°
2026-05-04 13:25 43.55944 27.27191 40014 ft 492 kts 301°
2026-05-04 13:26 43.59306 27.18966 40005 ft 491 kts 300°
2026-05-04 13:26 43.62653 27.10752 40017 ft 490 kts 301°
2026-05-04 13:27 43.65991 27.02535 40025 ft 490 kts 301°
2026-05-04 13:27 43.69326 26.94309 40025 ft 491 kts 301°
2026-05-04 13:28 43.72659 26.86058 40023 ft 491 kts 300°
2026-05-04 13:28 43.75975 26.77828 40029 ft 489 kts 300°
2026-05-04 13:29 43.79279 26.69601 40033 ft 489 kts 301°
2026-05-04 13:29 43.82556 26.61420 40031 ft 489 kts 301°
2026-05-04 13:30 43.85849 26.53179 40036 ft 487 kts 300°
2026-05-04 13:30 43.89121 26.44961 40038 ft 486 kts 300°
2026-05-04 13:31 43.92380 26.36752 40037 ft 486 kts 300°
2026-05-04 13:31 43.95641 26.28517 40037 ft 486 kts 300°
2026-05-04 13:32 43.99021 26.20400 40042 ft 485 kts 304°
2026-05-04 13:32 44.02745 26.12573 40042 ft 485 kts 305°
2026-05-04 13:33 44.06515 26.04800 40042 ft 485 kts 305°
2026-05-04 13:33 44.10267 25.97068 40042 ft 485 kts 305°
2026-05-04 13:34 44.14032 25.89271 40045 ft 485 kts 305°
2026-05-04 13:34 44.17788 25.81462 40045 ft 485 kts 305°
2026-05-04 13:35 44.23408 25.69732 40042 ft 486 kts 305°
2026-05-04 13:36 44.27158 25.61881 40040 ft 486 kts 305°
2026-05-04 13:36 44.30884 25.54058 40039 ft 487 kts 304°
2026-05-04 13:37 44.34626 25.46179 40029 ft 487 kts 305°
2026-05-04 13:37 44.38366 25.38285 40040 ft 487 kts 304°
2026-05-04 13:38 44.42105 25.30371 40034 ft 488 kts 305°
2026-05-04 13:38 44.45839 25.22446 40034 ft 488 kts 304°
2026-05-04 13:39 44.49567 25.14511 40032 ft 487 kts 305°
2026-05-04 13:39 44.53280 25.06585 40034 ft 486 kts 304°
2026-05-04 13:40 44.56987 24.98654 40031 ft 486 kts 304°
2026-05-04 13:40 44.60686 24.90717 40028 ft 486 kts 304°
2026-05-04 13:41 44.64372 24.82786 40025 ft 484 kts 304°
2026-05-04 13:41 44.68017 24.74918 40019 ft 483 kts 305°
2026-05-04 13:42 44.73500 24.63051 40024 ft 482 kts 304°
2026-05-04 13:42 44.77145 24.55131 40022 ft 482 kts 304°
2026-05-04 13:43 44.80784 24.47199 40023 ft 482 kts 304°
2026-05-04 13:43 44.84417 24.39259 40026 ft 482 kts 304°
2026-05-04 13:44 44.88046 24.31308 40023 ft 482 kts 304°
2026-05-04 13:44 44.91643 24.23406 40025 ft 481 kts 304°
2026-05-04 13:45 44.95253 24.15452 40014 ft 481 kts 304°
2026-05-04 13:45 44.98857 24.07489 40026 ft 481 kts 304°
2026-05-04 13:46 45.02450 23.99527 40026 ft 481 kts 304°
2026-05-04 13:46 45.06045 23.91542 40035 ft 481 kts 304°
2026-05-04 13:47 45.09638 23.83544 40039 ft 481 kts 303°
2026-05-04 13:47 45.13218 23.75546 40046 ft 481 kts 303°
2026-05-04 13:48 45.16795 23.67526 40043 ft 481 kts 304°
2026-05-04 13:48 45.20327 23.59588 40044 ft 478 kts 303°
2026-05-04 13:49 45.23871 23.51604 40048 ft 478 kts 304°
2026-05-04 13:49 45.27398 23.43637 40060 ft 476 kts 304°
2026-05-04 13:50 45.30929 23.35638 40061 ft 478 kts 303°
2026-05-04 13:50 45.33861 23.28977 40067 ft 477 kts 303°
2026-05-04 13:51 45.37384 23.20952 40075 ft 478 kts 304°
2026-05-04 13:51 45.40902 23.12914 40078 ft 479 kts 304°
2026-05-04 13:52 45.46179 23.00822 40076 ft 480 kts 303°
2026-05-04 13:53 45.49695 22.92732 40086 ft 479 kts 303°
2026-05-04 13:53 45.53200 22.84643 40088 ft 480 kts 303°
2026-05-04 13:54 45.58426 22.72541 40085 ft 480 kts 303°
2026-05-04 13:55 45.63666 22.60356 40089 ft 480 kts 303°
2026-05-04 13:55 45.68891 22.48151 40079 ft 479 kts 303°
2026-05-04 13:56 45.72365 22.40009 40090 ft 479 kts 303°
2026-05-04 13:57 45.77564 22.27782 40090 ft 479 kts 302°
2026-05-04 13:58 45.84471 22.11446 40088 ft 478 kts 302°
2026-05-04 13:58 45.89602 21.99252 40095 ft 477 kts 302°
2026-05-04 13:59 45.93030 21.91076 40092 ft 477 kts 302°
2026-05-04 14:00 45.98152 21.78813 40092 ft 475 kts 302°
2026-05-04 14:00 46.03233 21.66592 40100 ft 474 kts 302°
2026-05-04 14:01 46.06607 21.58448 40097 ft 474 kts 302°
2026-05-04 14:02 46.11659 21.46208 40099 ft 473 kts 302°
2026-05-04 14:02 46.15017 21.38042 40098 ft 473 kts 302°
2026-05-04 14:03 46.18373 21.29859 40113 ft 473 kts 302°
2026-05-04 14:03 46.21719 21.21675 40096 ft 473 kts 302°
2026-05-04 14:04 46.26733 21.09370 40094 ft 474 kts 302°
2026-05-04 14:04 46.30140 21.01207 40091 ft 474 kts 303°
2026-05-04 14:05 46.35305 20.89009 40105 ft 474 kts 302°
2026-05-04 14:06 46.38729 20.80853 40097 ft 473 kts 302°
2026-05-04 14:06 46.42112 20.72748 40096 ft 473 kts 302°
2026-05-04 14:07 46.45508 20.64582 40092 ft 473 kts 302°
2026-05-04 14:07 46.48898 20.56408 40093 ft 473 kts 302°
2026-05-04 14:08 46.52278 20.48236 40086 ft 471 kts 302°
2026-05-04 14:08 46.55638 20.40089 40090 ft 470 kts 302°
2026-05-04 14:09 46.60643 20.27906 40086 ft 470 kts 302°
2026-05-04 14:10 46.65659 20.15643 40083 ft 470 kts 302°
2026-05-04 14:10 46.69001 20.07442 40083 ft 470 kts 302°
2026-05-04 14:11 46.72336 19.99235 40079 ft 470 kts 302°
2026-05-04 14:11 46.77329 19.86897 40073 ft 470 kts 301°
2026-05-04 14:12 46.80620 19.78736 40073 ft 469 kts 301°
2026-05-04 14:13 46.85577 19.66399 40074 ft 469 kts 301°
2026-05-04 14:13 46.88855 19.58206 40070 ft 469 kts 301°
2026-05-04 14:14 46.92144 19.49965 40069 ft 469 kts 301°
2026-05-04 14:14 46.97064 19.37591 40072 ft 468 kts 301°
2026-05-04 14:15 47.03602 19.21055 40069 ft 468 kts 300°
2026-05-04 14:16 47.08477 19.08662 40068 ft 467 kts 300°
2026-05-04 14:17 47.13335 18.96254 40066 ft 468 kts 300°
2026-05-04 14:18 47.18163 18.83866 40063 ft 466 kts 300°
2026-05-04 14:19 47.24583 18.67301 40063 ft 465 kts 300°
2026-05-04 14:19 47.27785 18.59005 40065 ft 466 kts 300°
2026-05-04 14:20 47.30977 18.50706 40055 ft 466 kts 300°
2026-05-04 14:20 47.34160 18.42406 40055 ft 465 kts 300°
2026-05-04 14:21 47.38906 18.29982 40049 ft 464 kts 300°
2026-05-04 14:21 47.42068 18.21673 40045 ft 463 kts 300°
2026-05-04 14:22 47.45209 18.13393 40044 ft 462 kts 300°
2026-05-04 14:22 47.48352 18.05082 40038 ft 463 kts 299°
2026-05-04 14:23 47.53056 17.92596 40032 ft 464 kts 299°
2026-05-04 14:24 47.56192 17.84241 40032 ft 464 kts 299°
2026-05-04 14:24 47.59315 17.75891 40021 ft 463 kts 299°
2026-05-04 14:25 47.62430 17.67537 40020 ft 462 kts 299°
2026-05-04 14:25 47.67056 17.55082 40019 ft 463 kts 299°
2026-05-04 14:26 47.70153 17.46713 40010 ft 462 kts 298°
2026-05-04 14:26 47.73244 17.38334 40006 ft 463 kts 298°
2026-05-04 14:27 47.76330 17.29941 40004 ft 462 kts 298°
2026-05-04 14:27 47.79406 17.21549 39995 ft 462 kts 298°
2026-05-04 14:28 47.82468 17.13168 39992 ft 460 kts 298°
2026-05-04 14:28 47.85341 17.04647 39988 ft 461 kts 293°
2026-05-04 14:29 47.90243 16.87096 39983 ft 461 kts 292°
2026-05-04 14:30 47.92751 16.78312 39977 ft 460 kts 293°
2026-05-04 14:31 47.96547 16.65180 39970 ft 460 kts 293°
2026-05-04 14:32 48.01594 16.47621 39966 ft 460 kts 292°
2026-05-04 14:32 48.04105 16.38824 39968 ft 460 kts 292°
2026-05-04 14:33 48.06606 16.30035 39964 ft 460 kts 292°
2026-05-04 14:33 48.09090 16.21271 39956 ft 461 kts 292°
2026-05-04 14:34 48.11588 16.12426 39954 ft 461 kts 292°
2026-05-04 14:34 48.14074 16.03589 39949 ft 461 kts 292°
2026-05-04 14:35 48.16554 15.94746 39948 ft 460 kts 292°
2026-05-04 14:35 48.19023 15.85905 39947 ft 460 kts 292°
2026-05-04 14:36 48.21491 15.77035 39951 ft 460 kts 291°
2026-05-04 14:36 48.23944 15.68186 39944 ft 459 kts 291°
2026-05-04 14:37 48.26393 15.59320 39944 ft 459 kts 291°
2026-05-04 14:37 48.28835 15.50444 39947 ft 461 kts 291°
2026-05-04 14:38 48.31260 15.41598 39950 ft 461 kts 291°
2026-05-04 14:38 48.33690 15.32697 39948 ft 460 kts 291°
2026-05-04 14:39 48.36117 15.23776 39943 ft 461 kts 291°
2026-05-04 14:39 48.38536 15.14855 39947 ft 461 kts 291°
2026-05-04 14:40 48.42157 15.01429 39941 ft 461 kts 291°
2026-05-04 14:40 48.44157 14.93981 39944 ft 461 kts 291°
2026-05-04 14:41 48.46557 14.85013 39942 ft 462 kts 290°
2026-05-04 14:42 48.51335 14.67055 39941 ft 461 kts 290°
2026-05-04 14:42 48.53713 14.58065 39942 ft 461 kts 290°
2026-05-04 14:43 48.56061 14.49153 39937 ft 461 kts 290°
2026-05-04 14:43 48.58440 14.40089 39943 ft 461 kts 290°
2026-05-04 14:44 48.60780 14.31139 39946 ft 460 kts 289°
2026-05-04 14:44 48.63128 14.22123 39941 ft 460 kts 289°
2026-05-04 14:45 48.65466 14.13111 39958 ft 460 kts 289°
2026-05-04 14:45 48.67796 14.04091 39946 ft 460 kts 289°
2026-05-04 14:46 48.70119 13.95069 39940 ft 460 kts 289°
2026-05-04 14:46 48.72434 13.86035 39953 ft 461 kts 289°
2026-05-04 14:47 48.74746 13.76981 39939 ft 460 kts 289°
2026-05-04 14:47 48.77048 13.67911 39950 ft 460 kts 289°
2026-05-04 14:48 48.79245 13.58787 39938 ft 461 kts 288°
2026-05-04 14:48 48.81387 13.49697 39932 ft 461 kts 288°
2026-05-04 14:49 48.83547 13.40546 39940 ft 461 kts 288°
2026-05-04 14:49 48.85713 13.31389 39936 ft 461 kts 288°
2026-05-04 14:50 48.87874 13.22230 39943 ft 461 kts 288°
2026-05-04 14:50 48.90033 13.13043 39936 ft 461 kts 288°
2026-05-04 14:51 48.92181 13.03858 39934 ft 461 kts 287°
2026-05-04 14:51 48.94320 12.94671 39932 ft 461 kts 287°
2026-05-04 14:52 48.96452 12.85475 39935 ft 461 kts 287°
2026-05-04 14:52 48.98577 12.76271 39933 ft 461 kts 287°
2026-05-04 14:53 49.00693 12.67064 39938 ft 461 kts 287°
2026-05-04 14:53 49.02806 12.57834 39933 ft 461 kts 287°
2026-05-04 14:54 49.04909 12.48606 39933 ft 461 kts 287°
2026-05-04 14:54 49.07005 12.39372 39937 ft 461 kts 287°
2026-05-04 14:55 49.09080 12.30181 39942 ft 461 kts 287°
2026-05-04 14:55 49.11174 12.20875 39933 ft 461 kts 287°
2026-05-04 14:56 49.13238 12.11658 39951 ft 461 kts 287°
2026-05-04 14:56 49.15306 12.02381 39958 ft 461 kts 287°
2026-05-04 14:57 49.17365 11.93107 39962 ft 461 kts 286°
2026-05-04 14:57 49.19415 11.83828 39962 ft 461 kts 286°
2026-05-04 14:58 49.21458 11.74544 39961 ft 461 kts 286°
2026-05-04 14:58 49.23495 11.65241 39946 ft 461 kts 286°
2026-05-04 14:59 49.25511 11.55995 39954 ft 461 kts 286°
2026-05-04 15:00 49.28546 11.41994 39962 ft 462 kts 286°
2026-05-04 15:00 49.30561 11.32650 39963 ft 462 kts 286°
2026-05-04 15:01 49.33573 11.18600 39979 ft 462 kts 285°
2026-05-04 15:01 49.35572 11.09242 39968 ft 462 kts 286°
2026-05-04 15:02 49.37998 11.00103 39970 ft 463 kts 291°
2026-05-04 15:02 49.40651 10.91070 39973 ft 464 kts 291°
2026-05-04 15:03 49.43329 10.82065 39978 ft 464 kts 291°
2026-05-04 15:03 49.45974 10.73082 39981 ft 464 kts 291°
2026-05-04 15:04 49.48620 10.64006 39968 ft 465 kts 291°
2026-05-04 15:04 49.51259 10.54909 39964 ft 465 kts 291°
2026-05-04 15:05 49.53888 10.45816 39956 ft 465 kts 291°
2026-05-04 15:05 49.56492 10.36776 39961 ft 465 kts 291°
2026-05-04 15:06 49.59107 10.27662 39970 ft 465 kts 290°
2026-05-04 15:07 49.63023 10.13951 39979 ft 466 kts 290°
2026-05-04 15:07 49.65625 10.04800 39969 ft 466 kts 290°
2026-05-04 15:08 49.68218 9.95641 39975 ft 466 kts 290°
2026-05-04 15:08 49.70809 9.86453 39976 ft 467 kts 290°
2026-05-04 15:09 49.73395 9.77249 39973 ft 467 kts 290°
2026-05-04 15:09 49.75978 9.68022 39971 ft 467 kts 290°
2026-05-04 15:10 49.79834 9.54179 39974 ft 467 kts 290°
2026-05-04 15:11 49.83679 9.40285 39973 ft 468 kts 290°
2026-05-04 15:11 49.86223 9.31045 39974 ft 469 kts 290°
2026-05-04 15:12 49.88775 9.21747 39972 ft 468 kts 290°
2026-05-04 15:12 49.91318 9.12446 39973 ft 468 kts 289°
2026-05-04 15:13 49.93857 9.03118 39974 ft 469 kts 289°
2026-05-04 15:13 49.96392 8.93771 39970 ft 469 kts 289°
2026-05-04 15:14 49.98917 8.84421 39970 ft 470 kts 289°
2026-05-04 15:14 50.01438 8.75050 39966 ft 469 kts 289°
2026-05-04 15:15 50.03950 8.65670 39965 ft 469 kts 289°
2026-05-04 15:15 50.06453 8.56290 39967 ft 470 kts 289°
2026-05-04 15:16 50.10196 8.42190 39989 ft 469 kts 289°
2026-05-04 15:17 50.13889 8.28195 39989 ft 469 kts 289°
2026-05-04 15:17 50.17590 8.14080 39987 ft 469 kts 289°
2026-05-04 15:18 50.20030 8.04724 39986 ft 469 kts 289°
2026-05-04 15:19 50.23697 7.90595 39987 ft 468 kts 289°
2026-05-04 15:19 50.27107 7.77379 39986 ft 469 kts 289°
2026-05-04 15:20 50.29536 7.67915 39985 ft 469 kts 288°
2026-05-04 15:20 50.31958 7.58443 39987 ft 469 kts 288°
2026-05-04 15:21 50.34375 7.48946 39989 ft 469 kts 288°
2026-05-04 15:22 50.37983 7.34696 39987 ft 469 kts 288°
2026-05-04 15:22 50.41579 7.20402 39986 ft 470 kts 288°
2026-05-04 15:23 50.43966 7.10863 39989 ft 469 kts 288°
2026-05-04 15:23 50.46326 7.01396 39988 ft 469 kts 288°
2026-05-04 15:24 50.51057 6.82286 39983 ft 470 kts 288°
2026-05-04 15:25 50.53415 6.72700 39982 ft 470 kts 288°
2026-05-04 15:26 50.56939 6.58296 39976 ft 470 kts 288°
2026-05-04 15:26 50.60445 6.43871 39976 ft 472 kts 288°
2026-05-04 15:27 50.63943 6.29382 39977 ft 472 kts 288°
2026-05-04 15:28 50.67034 6.16500 39983 ft 472 kts 288°
2026-05-04 15:29 50.70881 6.00365 39976 ft 474 kts 288°
2026-05-04 15:30 50.78547 5.67843 39971 ft 473 kts 287°
2026-05-04 15:31 50.81946 5.53254 39991 ft 475 kts 287°
2026-05-04 15:32 50.87625 5.28672 39971 ft 476 kts 287°
2026-05-04 15:34 50.93259 5.04001 39976 ft 477 kts 287°
2026-05-04 15:34 50.96624 4.89126 39968 ft 478 kts 287°
2026-05-04 15:35 50.99974 4.74214 39963 ft 478 kts 287°
2026-05-04 15:36 51.03074 4.60312 39965 ft 480 kts 287°
2026-05-04 15:36 51.05282 4.50356 39971 ft 480 kts 287°
2026-05-04 15:37 51.07495 4.40334 39969 ft 480 kts 287°
2026-05-04 15:37 51.09700 4.30299 39970 ft 480 kts 287°
2026-05-04 15:38 51.11894 4.20263 39969 ft 480 kts 287°
2026-05-04 15:38 51.14080 4.10214 39968 ft 480 kts 287°
2026-05-04 15:39 51.16259 4.00149 39967 ft 480 kts 287°
2026-05-04 15:40 51.19496 3.85102 39966 ft 480 kts 287°
2026-05-04 15:40 51.21653 3.75014 39971 ft 481 kts 287°
2026-05-04 15:41 51.23670 3.64848 39966 ft 480 kts 281°
2026-05-04 15:41 51.25152 3.54454 39972 ft 479 kts 280°
2026-05-04 15:42 51.26457 3.44610 39971 ft 479 kts 279°
2026-05-04 15:42 51.27813 3.34188 39949 ft 478 kts 279°
2026-05-04 15:42 51.28471 3.29063 39393 ft 466 kts 279°
2026-05-04 15:43 51.29118 3.23981 38245 ft 466 kts 279°
2026-05-04 15:43 51.29747 3.19025 37543 ft 455 kts 278°
2026-05-04 15:43 51.30372 3.14102 36947 ft 452 kts 278°
2026-05-04 15:43 51.30996 3.09171 36299 ft 451 kts 278°
2026-05-04 15:44 51.31615 3.04256 35643 ft 451 kts 277°
2026-05-04 15:44 51.32233 2.99332 34963 ft 452 kts 277°
2026-05-04 15:44 51.32851 2.94408 34198 ft 448 kts 277°
2026-05-04 15:44 51.33460 2.89551 33351 ft 447 kts 276°
2026-05-04 15:45 51.34067 2.84657 32550 ft 451 kts 277°
2026-05-04 15:45 51.34679 2.79699 31760 ft 455 kts 277°
2026-05-04 15:45 51.35286 2.74767 31185 ft 458 kts 277°
2026-05-04 15:45 51.35913 2.69725 30642 ft 451 kts 277°
2026-05-04 15:46 51.36520 2.64844 30087 ft 446 kts 278°
2026-05-04 15:46 51.37119 2.59980 29458 ft 446 kts 278°
2026-05-04 15:46 51.37706 2.55181 28890 ft 443 kts 278°
2026-05-04 15:46 51.38294 2.50363 28335 ft 441 kts 278°
2026-05-04 15:47 51.38878 2.45557 27752 ft 437 kts 278°
2026-05-04 15:47 51.39453 2.40813 27209 ft 432 kts 278°
2026-05-04 15:47 51.40021 2.36108 26659 ft 429 kts 278°
2026-05-04 15:47 51.40583 2.31439 26113 ft 425 kts 278°
2026-05-04 15:48 51.41137 2.26814 25554 ft 421 kts 278°
2026-05-04 15:48 51.41693 2.22221 25031 ft 418 kts 278°
2026-05-04 15:48 51.42800 2.13152 23956 ft 412 kts 278°
2026-05-04 15:49 51.43347 2.08666 23372 ft 403 kts 278°
2026-05-04 15:49 51.43877 2.04319 22818 ft 397 kts 278°
2026-05-04 15:49 51.44403 1.99964 22277 ft 398 kts 279°
2026-05-04 15:49 51.44929 1.95599 21745 ft 400 kts 279°
2026-05-04 15:50 51.45444 1.91242 21201 ft 397 kts 278°
2026-05-04 15:50 51.45951 1.86910 20647 ft 394 kts 278°
2026-05-04 15:50 51.46453 1.82595 20106 ft 392 kts 278°
2026-05-04 15:50 51.46939 1.78361 19563 ft 390 kts 278°
2026-05-04 15:51 51.47428 1.74092 19013 ft 388 kts 279°
2026-05-04 15:51 51.47914 1.69853 18468 ft 381 kts 279°
2026-05-04 15:51 51.48381 1.65710 17870 ft 376 kts 278°
2026-05-04 15:51 51.48557 1.61528 17317 ft 374 kts 264°
2026-05-04 15:52 51.48056 1.57472 16767 ft 369 kts 251°
2026-05-04 15:52 51.47218 1.53655 16243 ft 362 kts 249°
2026-05-04 15:52 51.46327 1.49853 15700 ft 363 kts 249°
2026-05-04 15:52 51.45439 1.46070 15179 ft 362 kts 249°
2026-05-04 15:53 51.44564 1.42320 14643 ft 354 kts 249°
2026-05-04 15:53 51.43519 1.38742 14168 ft 361 kts 238°
2026-05-04 15:53 51.41928 1.35769 13840 ft 349 kts 220°
2026-05-04 15:53 51.39954 1.33302 13877 ft 369 kts 217°
2026-05-04 15:54 51.37867 1.30836 13762 ft 374 kts 217°
2026-05-04 15:54 51.35790 1.28393 13493 ft 374 kts 216°
2026-05-04 15:54 51.33697 1.25930 13331 ft 374 kts 217°
2026-05-04 15:54 51.31607 1.23468 13094 ft 372 kts 216°
2026-05-04 15:55 51.29524 1.21014 13004 ft 372 kts 216°
2026-05-04 15:55 51.27441 1.18563 12989 ft 372 kts 216°
2026-05-04 15:55 51.25359 1.16114 12990 ft 372 kts 216°
2026-05-04 15:55 51.23275 1.13665 12993 ft 372 kts 216°
2026-05-04 15:56 51.21195 1.11224 12989 ft 367 kts 216°
2026-05-04 15:56 51.19195 1.08878 12997 ft 347 kts 216°
2026-05-04 15:56 51.17311 1.06671 13000 ft 327 kts 216°
2026-05-04 15:56 51.15529 1.04586 13002 ft 309 kts 216°
2026-05-04 15:57 51.13830 1.02599 13006 ft 300 kts 216°
2026-05-04 15:57 51.12149 1.00636 13011 ft 300 kts 216°
2026-05-04 15:57 51.10466 0.98671 13013 ft 300 kts 216°
2026-05-04 15:57 51.08777 0.96703 13014 ft 300 kts 216°
2026-05-04 15:58 51.07098 0.94736 12972 ft 300 kts 217°
2026-05-04 15:58 51.05616 0.92427 12753 ft 299 kts 234°
2026-05-04 15:58 51.04598 0.89553 12525 ft 298 kts 244°
2026-05-04 15:58 51.03716 0.86568 12333 ft 298 kts 245°
2026-05-04 15:59 51.02845 0.83584 12083 ft 297 kts 245°
2026-05-04 15:59 51.01972 0.80618 11763 ft 296 kts 244°
2026-05-04 15:59 51.01098 0.77671 11434 ft 294 kts 244°
2026-05-04 15:59 51.00227 0.74750 11104 ft 292 kts 244°
2026-05-04 16:00 50.99367 0.71871 10785 ft 291 kts 244°
2026-05-04 16:00 50.98498 0.68972 10477 ft 290 kts 244°
2026-05-04 16:00 50.97638 0.66095 10165 ft 288 kts 244°
2026-05-04 16:00 50.96781 0.63243 9847 ft 286 kts 244°
2026-05-04 16:01 50.95924 0.60406 9496 ft 285 kts 244°
2026-05-04 16:01 50.95071 0.57583 9164 ft 284 kts 244°
2026-05-04 16:01 50.94218 0.54763 8824 ft 283 kts 244°
2026-05-04 16:01 50.93368 0.51953 8478 ft 281 kts 244°
2026-05-04 16:02 50.92523 0.49163 8139 ft 280 kts 245°
2026-05-04 16:02 50.91749 0.46335 7817 ft 279 kts 252°
2026-05-04 16:02 50.91901 0.40351 7173 ft 274 kts 286°
2026-05-04 16:03 50.92444 0.37450 6861 ft 274 kts 287°
2026-05-04 16:03 50.92992 0.34569 6556 ft 273 kts 287°
2026-05-04 16:03 50.93533 0.31688 6269 ft 272 kts 287°
2026-05-04 16:03 50.94067 0.28813 5971 ft 270 kts 287°
2026-05-04 16:04 50.94719 0.26109 5648 ft 263 kts 299°
2026-05-04 16:04 50.96815 0.21517 5031 ft 252 kts 309°
2026-05-04 16:04 50.97892 0.19358 4732 ft 247 kts 309°
2026-05-04 16:05 50.98949 0.17229 4407 ft 243 kts 309°
2026-05-04 16:05 50.99984 0.15134 4112 ft 239 kts 309°
2026-05-04 16:05 51.01661 0.10776 3965 ft 233 kts 287°
2026-05-04 16:06 51.01906 0.08238 3965 ft 234 kts 276°
2026-05-04 16:06 51.02180 0.01375 3881 ft 231 kts 275°
2026-05-04 16:07 51.02316 -0.01963 3910 ft 227 kts 275°
2026-05-04 16:07 51.02639 -0.09649 3969 ft 234 kts 275°
2026-05-04 16:08 51.02748 -0.12230 3969 ft 234 kts 275°
2026-05-04 16:08 51.03064 -0.19968 3965 ft 234 kts 275°
2026-05-04 16:09 51.03265 -0.24891 3830 ft 215 kts 275°
2026-05-04 16:09 51.03453 -0.29603 3263 ft 213 kts 275°
2026-05-04 16:10 51.03647 -0.34257 2839 ft 208 kts 274°
2026-05-04 16:11 51.03930 -0.41178 2957 ft 202 kts 274°
2026-05-04 16:11 51.04093 -0.43322 2955 ft 191 kts 285°
2026-05-04 16:12 51.06785 -0.47229 2980 ft 184 kts 353°
2026-05-04 16:12 51.10424 -0.45772 2935 ft 170 kts 33°
2026-05-04 16:13 51.11520 -0.42671 2968 ft 162 kts 76°
2026-05-04 16:13 51.12037 -0.39149 2577 ft 163 kts 77°
2026-05-04 16:14 51.12429 -0.36279 2196 ft 152 kts 77°
2026-05-04 16:14 51.12922 -0.32731 1762 ft 135 kts 78°
2026-05-04 16:15 51.13459 -0.28842 1286 ft 135 kts 78°
2026-05-04 16:16 51.13856 -0.25942 878 ft 132 kts 77°
2026-05-04 16:16 51.14451 -0.21711 360 ft 130 kts 75°
2026-05-04 16:17 51.14813 -0.19044 221 ft 95 kts 78°
2026-05-04 16:18 51.15106 -0.17758 216 ft 0 kts 14°
2026-05-04 16:20 51.15188 -0.17632 221 ft 14 kts 70°
2026-05-04 16:20 51.15315 -0.17357 216 ft 16 kts 347°
2026-05-04 16:21 51.15678 -0.17483 217 ft 11 kts 348°
2026-05-04 16:22 51.15735 -0.17693 218 ft 20 kts 258°
2026-05-04 16:22 51.15847 -0.18080 218 ft 15 kts 347°
2026-05-04 16:23 51.16049 -0.18065 220 ft 4 kts 77°